Date String (YYYY-MM-DD hh:mm:ss) UTC,Instrument flags,Ambient pressure (hPa),Sample flow (lpm),Bypass flow (lpm),Sample temperature (°C),Ambient temperature (°C),ASC tube jacket temperature (°C),LED temperature (°C),Box temperature (°C),Sample RH (%),Span deviation,Mass concentration (μg/m³),Mass concentration (μg/m³),Mass concentration (μg/m³)
DateTimeUTC,F1_M11,P_M11,Q1_M11,Q2_M11,T1_M11,T2_M11,T3_M11,T4_M11,T5_M11,U1_M11,ZSPAN_M11,X0_M11,X2_M11,X1_M11
2022-10-15 15:00:00,,0829.4,5.00,0.00,27.8,26.6,00.0,36.5,29.7,12.3,0000.0,0007.16,0003.18,0002.74
2022-10-15 15:01:00,,0829.4,5.00,0.00,27.8,26.6,00.0,36.6,29.7,12.5,0000.0,0007.68,0003.21,0002.75
2022-10-15 15:02:00,,0829.4,5.00,0.00,27.8,26.6,00.0,36.6,29.7,12.5,0000.0,0007.71,0003.25,0002.81
2022-10-15 15:03:00,,0829.4,5.00,0.00,27.8,26.7,00.0,36.6,29.7,12.7,0000.0,0007.79,0003.29,0002.84
2022-10-15 15:04:00,,0829.5,5.00,0.00,27.8,26.7,00.0,36.6,29.7,12.9,0000.0,0007.66,0003.35,0002.89
2022-10-15 15:05:00,,0829.4,5.00,0.00,27.8,26.7,00.0,36.6,29.7,13.0,0000.0,0007.40,0003.39,0002.98
2022-10-15 15:06:00,,0829.4,5.01,0.00,27.9,26.7,00.0,36.6,29.8,13.0,0000.0,0007.30,0003.45,0003.07
2022-10-15 15:07:00,,0829.4,5.01,0.00,27.9,26.7,00.0,36.7,29.8,13.1,0000.0,0007.41,0003.50,0003.15
2022-10-15 15:08:00,,0829.5,5.00,0.00,27.9,26.7,00.0,36.7,29.8,13.5,0000.0,0007.79,0003.58,0003.23
2022-10-15 15:09:00,,0829.5,5.00,0.00,27.9,26.8,00.0,36.7,29.8,13.5,0000.0,0007.89,0003.66,0003.32
2022-10-15 15:10:00,,0829.5,5.01,0.00,27.9,26.8,00.0,36.7,29.8,13.4,0000.0,0008.91,0003.76,0003.40
2022-10-15 15:11:00,,0829.5,4.99,0.00,27.9,26.8,00.0,36.7,29.8,13.5,0000.0,0008.90,0003.84,0003.48
2022-10-15 15:12:00,,0829.5,5.01,0.00,28.0,26.8,00.0,36.7,29.9,13.5,0000.0,0009.11,0003.91,0003.56
2022-10-15 15:13:00,,0829.5,5.01,0.00,28.0,26.8,00.0,36.7,29.9,13.5,0000.0,0009.83,0003.95,0003.61
2022-10-15 15:14:00,,0829.5,5.00,0.00,28.0,26.8,00.0,36.8,29.9,13.8,0000.0,0009.81,0004.00,0003.68
2022-10-15 15:15:00,,0829.5,5.00,0.00,28.0,26.8,00.0,36.8,29.9,13.7,0000.0,0009.79,0004.05,0003.75
2022-10-15 15:16:00,,0829.5,5.00,0.00,28.0,26.9,00.0,36.8,29.9,14.0,0000.0,0010.13,0004.09,0003.81
2022-10-15 15:17:00,,0829.5,4.99,0.00,28.0,26.9,00.0,36.8,29.9,14.0,0000.0,0010.28,0004.12,0003.86
2022-10-15 15:18:00,,0829.5,5.01,0.00,28.0,26.9,00.0,36.8,29.9,14.2,0000.0,0010.54,0004.17,0003.90
2022-10-15 15:19:00,,0829.5,5.01,0.00,28.1,26.9,00.0,36.8,29.9,14.5,0000.0,0010.75,0004.23,0003.94
2022-10-15 15:20:00,,0829.5,4.99,0.00,28.1,26.9,00.0,36.8,30.0,14.7,0000.0,0011.23,0004.33,0004.01
2022-10-15 15:21:00,,0829.5,5.00,0.00,28.1,26.9,00.0,36.8,30.0,14.7,0000.0,0010.79,0004.40,0004.09
2022-10-15 15:22:00,,0829.5,5.00,0.00,28.1,27.0,00.0,36.9,30.0,14.8,0000.0,0010.85,0004.46,0004.17
2022-10-15 15:23:00,,0829.5,5.00,0.00,28.1,27.0,00.0,36.9,30.0,14.6,0000.0,0010.65,0004.56,0004.25
2022-10-15 15:24:00,,0829.5,5.00,0.00,28.1,27.0,00.0,36.9,30.0,14.7,0000.0,0010.85,0004.68,0004.35
2022-10-15 15:25:00,,0829.5,5.00,0.00,28.1,27.0,00.0,36.9,30.0,14.8,0000.0,0011.37,0004.82,0004.46
2022-10-15 15:26:00,,0829.5,5.00,0.00,28.2,27.0,00.0,36.9,30.0,14.9,0000.0,0011.37,0004.91,0004.56
2022-10-15 15:27:00,,0829.5,5.00,0.00,28.2,27.0,00.0,36.9,30.1,14.8,0000.0,0011.22,0005.00,0004.65
2022-10-15 15:28:00,,0829.5,5.00,0.00,28.2,27.0,00.0,36.9,30.1,14.8,0000.0,0011.51,0005.11,0004.73
2022-10-15 15:29:00,,0829.5,5.00,0.00,28.2,27.0,00.0,37.0,30.1,14.8,0000.0,0011.33,0005.19,0004.81
2022-10-15 15:30:00,,0829.5,5.00,0.00,28.2,27.1,00.0,37.0,30.1,14.8,0000.0,0011.00,0005.25,0004.86
2022-10-15 15:31:00,,0829.5,5.00,0.00,28.2,27.1,00.0,37.0,30.1,15.0,0000.0,0010.59,0005.26,0004.89
2022-10-15 15:32:00,,0829.5,5.00,0.00,28.2,27.1,00.0,37.0,30.1,15.0,0000.0,0010.08,0005.28,0004.90
2022-10-15 15:33:00,,0829.5,5.00,0.00,28.3,27.1,00.0,37.0,30.1,14.9,0000.0,0009.95,0005.33,0004.92
2022-10-15 15:34:00,,0829.5,5.00,0.00,28.3,27.1,00.0,37.0,30.2,14.9,0000.0,0009.67,0005.35,0004.94
2022-10-15 15:35:00,,0829.5,4.99,0.00,28.3,27.1,00.0,37.0,30.2,15.0,0000.0,0009.25,0005.33,0004.94
2022-10-15 15:36:00,,0829.4,5.01,0.00,28.3,27.1,00.0,37.1,30.2,14.9,0000.0,0009.44,0005.26,0004.91
2022-10-15 15:37:00,,0829.5,5.01,0.00,28.3,27.2,00.0,37.1,30.2,14.9,0000.0,0009.65,0005.29,0004.90
2022-10-15 15:38:00,,0829.5,5.00,0.00,28.3,27.2,00.0,37.1,30.2,14.8,0000.0,0009.77,0005.30,0004.88
2022-10-15 15:39:00,,0829.5,4.98,0.00,28.4,27.2,00.0,37.1,30.2,14.7,0000.0,0009.43,0005.27,0004.87
2022-10-15 15:40:00,,0829.5,5.00,0.00,28.4,27.2,00.0,37.1,30.3,14.7,0000.0,0009.41,0005.25,0004.85
2022-10-15 15:41:00,,0829.5,5.01,0.00,28.4,27.2,00.0,37.1,30.3,14.7,0000.0,0009.27,0005.20,0004.82
2022-10-15 15:42:00,,0829.5,4.98,0.00,28.4,27.2,00.0,37.2,30.3,14.6,0000.0,0009.21,0005.18,0004.80
2022-10-15 15:43:00,,0829.5,5.01,0.00,28.4,27.2,00.0,37.2,30.3,14.7,0000.0,0009.64,0005.15,0004.80
2022-10-15 15:44:00,,0829.5,5.01,0.00,28.4,27.2,00.0,37.2,30.3,14.6,0000.0,0009.52,0005.10,0004.78
2022-10-15 15:45:00,,0829.5,4.99,0.00,28.4,27.2,00.0,37.2,30.3,14.5,0000.0,0009.56,0005.08,0004.76
2022-10-15 15:46:00,,0829.5,5.00,0.00,28.4,27.3,00.0,37.2,30.3,14.4,0000.0,0009.55,0005.09,0004.73
2022-10-15 15:47:00,,0829.4,5.00,0.00,28.4,27.3,00.0,37.2,30.3,14.5,0000.0,0008.90,0005.09,0004.70
2022-10-15 15:48:00,,0829.5,5.00,0.00,28.5,27.3,00.0,37.2,30.3,14.4,0000.0,0008.76,0005.04,0004.66
2022-10-15 15:49:00,,0829.5,5.00,0.00,28.5,27.3,00.0,37.2,30.3,14.5,0000.0,0008.44,0004.99,0004.64
2022-10-15 15:50:00,,0829.5,5.00,0.00,28.5,27.3,00.0,37.3,30.4,14.4,0000.0,0008.90,0004.98,0004.64
2022-10-15 15:51:00,,0829.5,5.00,0.00,28.5,27.3,00.0,37.3,30.4,14.4,0000.0,0009.15,0004.98,0004.63
2022-10-15 15:52:00,,0829.5,4.99,0.00,28.5,27.3,00.0,37.3,30.4,14.5,0000.0,0009.21,0004.99,0004.63
2022-10-15 15:53:00,,0829.5,5.00,0.00,28.5,27.3,00.0,37.3,30.4,14.5,0000.0,0009.28,0004.99,0004.62
2022-10-15 15:54:00,,0829.5,5.01,0.00,28.5,27.3,00.0,37.3,30.4,14.8,0000.0,0009.24,0005.01,0004.62
2022-10-15 15:55:00,,0829.5,5.00,0.00,28.6,27.3,00.0,37.3,30.4,14.7,0000.0,0009.34,0005.06,0004.64
2022-10-15 15:56:00,,0829.5,4.99,0.00,28.6,27.4,00.0,37.3,30.4,14.8,0000.0,0009.64,0005.10,0004.67
2022-10-15 15:57:00,,0829.5,5.00,0.00,28.6,27.4,00.0,37.3,30.5,14.8,0000.0,0009.77,0005.14,0004.71
2022-10-15 15:58:00,,0829.5,5.00,0.00,28.6,27.4,00.0,37.4,30.5,14.7,0000.0,0009.91,0005.16,0004.75
2022-10-15 15:59:00,,0829.5,5.00,0.00,28.6,27.4,00.0,37.4,30.5,14.7,0000.0,0009.89,0005.19,0004.77
